CARTOSAT-2D

Last updated on Mon Sep 07 2026 00:02:46 GMT+0000 (Coordinated Universal Time)

1 41948U 17008A 26249.63134436 .00003474 00000+0 16787-3 0 9994 2 41948 97.4035 307.3790 0004045 334.7152 25.3884 15.19278891529943
UTC large
Height (km)
Speed (km/s)
/
Latitude / Longitude
Inclination (degrees)
Orbital Period (minutes)
Azimuth
Elevation
Range (km)
Doppler Factor

Next 0 passes for location: London (51.5072 / 0.1276)

No passes found over London.
CARTOSAT-2D